Time,TemperatureF,DewpointF,PressureIn,WindDirection,WindDirectionDegrees,WindSpeedMPH,WindSpeedGustMPH,Humidity,HourlyPrecipIn,Conditions,Clouds,dailyrainin,SoftwareType,DateUTC
2013-02-15 00:02:00,35.0,30.0,29.80,NE,51,1.0,2.0,83,0.00,,,0.00,,2013-02-15 06:02:00,
2013-02-15 00:11:00,35.0,30.0,29.80,NE,51,1.0,2.0,83,0.00,,,0.00,,2013-02-15 06:11:00,
2013-02-15 00:21:00,35.0,31.0,29.80,NE,56,1.0,3.0,84,0.00,,,0.00,,2013-02-15 06:21:00,
2013-02-15 00:31:00,35.0,31.0,29.80,NE,56,2.0,4.0,84,0.00,,,0.00,,2013-02-15 06:31:00,
2013-02-15 00:42:00,35.0,31.0,29.80,NE,56,2.0,4.0,84,0.00,,,0.00,,2013-02-15 06:42:00,
2013-02-15 00:51:00,35.0,31.0,29.80,ENE,70,1.0,4.0,84,0.00,,,0.00,,2013-02-15 06:51:00,
2013-02-15 01:01:00,35.0,31.0,29.81,East,81,0.0,4.0,84,0.00,,,0.00,,2013-02-15 07:01:00,
2013-02-15 01:11:00,35.0,31.0,29.81,East,81,0.0,4.0,84,0.00,,,0.00,,2013-02-15 07:11:00,
2013-02-15 01:21:00,35.0,31.0,29.80,East,82,1.0,2.0,84,0.00,,,0.00,,2013-02-15 07:21:00,
2013-02-15 01:31:00,36.0,31.0,29.80,ENE,72,0.0,3.0,83,0.00,,,0.00,,2013-02-15 07:31:00,
2013-02-15 01:42:00,36.0,31.0,29.80,ENE,72,0.0,3.0,83,0.00,,,0.00,,2013-02-15 07:42:00,
2013-02-15 01:52:00,36.0,30.0,29.81,ESE,111,1.0,4.0,79,0.00,,,0.00,,2013-02-15 07:52:00,
2013-02-15 02:01:00,36.0,31.0,29.81,South,182,3.0,6.0,81,0.00,,,0.00,,2013-02-15 08:01:00,
2013-02-15 02:11:00,36.0,31.0,29.81,South,182,3.0,6.0,81,0.00,,,0.00,,2013-02-15 08:11:00,
2013-02-15 02:21:00,35.0,30.0,29.82,South,190,2.0,7.0,81,0.00,,,0.00,,2013-02-15 08:21:00,
2013-02-15 02:31:00,35.0,30.0,29.82,South,186,2.0,7.0,81,0.00,,,0.00,,2013-02-15 08:31:00,
2013-02-15 02:42:00,35.0,30.0,29.82,South,186,2.0,7.0,81,0.00,,,0.00,,2013-02-15 08:42:00,
2013-02-15 02:52:00,34.0,29.0,29.83,South,177,2.0,7.0,82,0.00,,,0.00,,2013-02-15 08:52:00,
2013-02-15 03:01:00,33.0,28.0,29.83,South,185,2.0,5.0,83,0.00,,,0.00,,2013-02-15 09:01:00,
2013-02-15 03:12:00,33.0,28.0,29.83,South,185,2.0,5.0,83,0.00,,,0.00,,2013-02-15 09:12:00,
2013-02-15 03:21:00,33.0,29.0,29.83,SSW,205,2.0,6.0,84,0.00,,,0.00,,2013-02-15 09:21:00,
2013-02-15 03:32:00,33.0,29.0,29.83,South,185,2.0,5.0,84,0.00,,,0.00,,2013-02-15 09:32:00,
2013-02-15 03:42:00,33.0,29.0,29.83,South,185,2.0,5.0,84,0.00,,,0.00,,2013-02-15 09:42:00,
2013-02-15 03:51:00,33.0,29.0,29.84,SSW,193,3.0,7.0,84,0.00,,,0.00,,2013-02-15 09:51:00,
2013-02-15 04:01:00,33.0,29.0,29.84,South,191,4.0,7.0,85,0.00,,,0.00,,2013-02-15 10:01:00,
2013-02-15 04:11:00,33.0,29.0,29.84,South,191,4.0,7.0,85,0.00,,,0.00,,2013-02-15 10:11:00,
2013-02-15 04:21:00,33.0,29.0,29.84,SSW,207,4.0,9.0,84,0.00,,,0.00,,2013-02-15 10:21:00,
2013-02-15 04:31:00,32.0,28.0,29.84,SSW,208,4.0,9.0,85,0.00,,,0.00,,2013-02-15 10:31:00,
2013-02-15 04:41:00,32.0,28.0,29.84,SSW,208,4.0,9.0,85,0.00,,,0.00,,2013-02-15 10:41:00,
2013-02-15 04:52:00,32.0,28.0,29.85,South,187,4.0,9.0,85,0.00,,,0.00,,2013-02-15 10:52:00,
2013-02-15 05:01:00,32.0,28.0,29.85,SSW,195,4.0,11.0,84,0.00,,,0.00,,2013-02-15 11:01:00,
2013-02-15 05:11:00,32.0,28.0,29.85,SSW,195,4.0,11.0,84,0.00,,,0.00,,2013-02-15 11:11:00,
2013-02-15 05:22:00,32.0,27.0,29.86,SSW,207,4.0,9.0,83,0.00,,,0.00,,2013-02-15 11:22:00,
2013-02-15 05:32:00,32.0,27.0,29.86,SSW,208,6.0,11.0,83,0.00,,,0.00,,2013-02-15 11:32:00,
2013-02-15 05:42:00,32.0,27.0,29.86,SSW,208,6.0,11.0,83,0.00,,,0.00,,2013-02-15 11:42:00,
2013-02-15 05:52:00,31.0,26.0,29.87,SSW,206,7.0,13.0,82,0.00,,,0.00,,2013-02-15 11:52:00,
2013-02-15 06:01:00,31.0,26.0,29.88,SSW,204,6.0,11.0,82,0.00,,,0.00,,2013-02-15 12:01:00,
2013-02-15 06:11:00,31.0,26.0,29.88,SSW,204,6.0,11.0,82,0.00,,,0.00,,2013-02-15 12:11:00,
2013-02-15 06:21:00,30.0,25.0,29.89,SSW,200,7.0,11.0,83,0.00,,,0.00,,2013-02-15 12:21:00,
2013-02-15 06:32:00,29.0,25.0,29.89,SSW,206,4.0,11.0,84,0.00,,,0.00,,2013-02-15 12:32:00,
2013-02-15 06:42:00,29.0,25.0,29.89,SSW,206,4.0,11.0,84,0.00,,,0.00,,2013-02-15 12:42:00,
2013-02-15 06:52:00,29.0,25.0,29.90,SSW,210,5.0,10.0,83,0.00,,,0.00,,2013-02-15 12:52:00,
2013-02-15 07:02:00,29.0,24.0,29.91,SSW,202,7.0,13.0,81,0.00,,,0.00,,2013-02-15 13:02:00,
2013-02-15 07:11:00,29.0,24.0,29.91,SSW,202,7.0,13.0,81,0.00,,,0.00,,2013-02-15 13:11:00,
2013-02-15 07:21:00,29.0,24.0,29.91,SSW,196,4.0,10.0,81,0.00,,,0.00,,2013-02-15 13:21:00,
2013-02-15 07:32:00,29.0,23.0,29.92,SSW,196,5.0,9.0,79,0.00,,,0.00,,2013-02-15 13:32:00,
2013-02-15 07:42:00,29.0,23.0,29.92,SSW,196,5.0,9.0,79,0.00,,,0.00,,2013-02-15 13:42:00,
2013-02-15 07:51:00,30.0,24.0,29.92,SSW,198,5.0,11.0,78,0.00,,,0.00,,2013-02-15 13:51:00,
2013-02-15 08:01:00,30.0,23.0,29.93,SSW,206,5.0,9.0,76,0.00,,,0.00,,2013-02-15 14:01:00,
2013-02-15 08:11:00,30.0,23.0,29.93,SSW,206,5.0,9.0,76,0.00,,,0.00,,2013-02-15 14:11:00,
2013-02-15 08:21:00,30.0,23.0,29.94,WSW,238,4.0,11.0,76,0.00,,,0.00,,2013-02-15 14:21:00,
2013-02-15 08:32:00,29.0,22.0,29.95,SSW,211,4.0,11.0,76,0.00,,,0.00,,2013-02-15 14:32:00,
2013-02-15 08:41:00,29.0,22.0,29.95,SSW,211,4.0,11.0,76,0.00,,,0.00,,2013-02-15 14:41:00,
2013-02-15 08:52:00,28.0,21.0,29.96,SSW,194,7.0,15.0,76,0.00,,,0.00,,2013-02-15 14:52:00,
2013-02-15 09:01:00,29.0,21.0,29.96,SSW,196,6.0,16.0,73,0.00,,,0.00,,2013-02-15 15:01:00,
2013-02-15 09:11:00,29.0,21.0,29.96,SSW,196,6.0,16.0,73,0.00,,,0.00,,2013-02-15 15:11:00,
2013-02-15 09:21:00,29.0,21.0,29.97,SW,230,6.0,14.0,73,0.00,,,0.00,,2013-02-15 15:21:00,
2013-02-15 09:32:00,29.0,21.0,29.97,SSW,205,8.0,14.0,71,0.00,,,0.00,,2013-02-15 15:32:00,
2013-02-15 09:42:00,29.0,21.0,29.97,SSW,205,8.0,14.0,71,0.00,,,0.00,,2013-02-15 15:42:00,
2013-02-15 09:52:00,29.0,20.0,29.97,SSW,207,6.0,14.0,69,0.00,,,0.00,,2013-02-15 15:52:00,
2013-02-15 10:01:00,29.0,19.0,29.97,SSW,208,6.0,15.0,67,0.00,,,0.00,,2013-02-15 16:01:00,
2013-02-15 10:11:00,29.0,19.0,29.97,SSW,208,6.0,15.0,67,0.00,,,0.00,,2013-02-15 16:11:00,
2013-02-15 10:22:00,30.0,19.0,29.98,SW,220,8.0,13.0,64,0.00,,,0.00,,2013-02-15 16:22:00,
2013-02-15 10:32:00,31.0,20.0,29.98,SSW,203,6.0,14.0,62,0.00,,,0.00,,2013-02-15 16:32:00,
2013-02-15 10:42:00,31.0,20.0,29.98,SSW,203,6.0,14.0,62,0.00,,,0.00,,2013-02-15 16:42:00,
2013-02-15 10:52:00,32.0,20.0,29.98,SSW,208,6.0,15.0,61,0.00,,,0.00,,2013-02-15 16:52:00,
2013-02-15 11:01:00,33.0,21.0,29.99,SSW,203,8.0,16.0,61,0.00,,,0.00,,2013-02-15 17:01:00,
2013-02-15 11:11:00,33.0,21.0,29.99,SSW,203,8.0,16.0,61,0.00,,,0.00,,2013-02-15 17:11:00,
2013-02-15 11:21:00,33.0,20.0,29.99,SSW,196,8.0,16.0,59,0.00,,,0.00,,2013-02-15 17:21:00,
2013-02-15 11:32:00,32.0,19.0,29.99,SSW,213,8.0,19.0,59,0.00,,,0.00,,2013-02-15 17:32:00,
2013-02-15 11:42:00,32.0,19.0,29.99,SSW,213,8.0,19.0,59,0.00,,,0.00,,2013-02-15 17:42:00,
2013-02-15 11:52:00,33.0,21.0,29.98,SSW,204,8.0,13.0,60,0.00,,,0.00,,2013-02-15 17:52:00,
2013-02-15 12:01:00,34.0,21.0,29.98,SSW,205,8.0,14.0,58,0.00,,,0.00,,2013-02-15 18:01:00,
2013-02-15 12:11:00,34.0,21.0,29.98,SSW,205,8.0,14.0,58,0.00,,,0.00,,2013-02-15 18:11:00,
2013-02-15 12:21:00,35.0,20.0,29.98,SSW,206,9.0,15.0,55,0.00,,,0.00,,2013-02-15 18:21:00,
2013-02-15 12:31:00,35.0,20.0,29.98,SSW,195,8.0,13.0,53,0.00,,,0.00,,2013-02-15 18:31:00,
2013-02-15 12:42:00,35.0,20.0,29.98,SSW,195,8.0,13.0,53,0.00,,,0.00,,2013-02-15 18:42:00,
2013-02-15 12:52:00,35.0,18.0,29.97,SW,215,8.0,13.0,49,0.00,,,0.00,,2013-02-15 18:52:00,
2013-02-15 13:01:00,35.0,17.0,29.96,SSW,209,5.0,13.0,48,0.00,,,0.00,,2013-02-15 19:01:00,
2013-02-15 13:11:00,35.0,17.0,29.96,SSW,209,5.0,13.0,48,0.00,,,0.00,,2013-02-15 19:11:00,
2013-02-15 13:22:00,36.0,18.0,29.96,SSW,210,8.0,13.0,48,0.00,,,0.00,,2013-02-15 19:22:00,
2013-02-15 13:32:00,37.0,19.0,29.96,SSW,204,4.0,11.0,47,0.00,,,0.00,,2013-02-15 19:32:00,
2013-02-15 13:41:00,37.0,19.0,29.96,SSW,204,4.0,11.0,47,0.00,,,0.00,,2013-02-15 19:41:00,
2013-02-15 13:51:00,37.0,19.0,29.96,South,189,4.0,11.0,47,0.00,,,0.00,,2013-02-15 19:51:00,
2013-02-15 14:01:00,37.0,17.0,29.96,SSW,195,5.0,12.0,43,0.00,,,0.00,,2013-02-15 20:01:00,
2013-02-15 14:11:00,37.0,17.0,29.96,SSW,195,5.0,12.0,43,0.00,,,0.00,,2013-02-15 20:11:00,
2013-02-15 14:21:00,37.0,16.0,29.96,SW,219,6.0,11.0,41,0.00,,,0.00,,2013-02-15 20:21:00,
2013-02-15 14:32:00,37.0,16.0,29.96,SW,214,4.0,14.0,41,0.00,,,0.00,,2013-02-15 20:32:00,
2013-02-15 14:42:00,37.0,16.0,29.96,SW,214,4.0,14.0,41,0.00,,,0.00,,2013-02-15 20:42:00,
2013-02-15 14:52:00,37.0,15.0,29.96,SW,214,8.0,15.0,40,0.00,,,0.00,,2013-02-15 20:52:00,
2013-02-15 15:01:00,37.0,14.0,29.96,SSW,206,6.0,13.0,39,0.00,,,0.00,,2013-02-15 21:01:00,
2013-02-15 15:11:00,37.0,14.0,29.96,SSW,206,6.0,13.0,39,0.00,,,0.00,,2013-02-15 21:11:00,
2013-02-15 15:21:00,38.0,16.0,29.96,SSW,201,5.0,11.0,40,0.00,,,0.00,,2013-02-15 21:21:00,
2013-02-15 15:31:00,38.0,15.0,29.97,SSW,209,6.0,13.0,38,0.00,,,0.00,,2013-02-15 21:31:00,
2013-02-15 15:42:00,38.0,15.0,29.97,SSW,209,6.0,13.0,38,0.00,,,0.00,,2013-02-15 21:42:00,
2013-02-15 15:52:00,38.0,15.0,29.97,SSW,202,5.0,15.0,39,0.00,,,0.00,,2013-02-15 21:52:00,
2013-02-15 16:02:00,37.0,14.0,29.97,SW,217,5.0,12.0,39,0.00,,,0.00,,2013-02-15 22:02:00,
2013-02-15 16:11:00,37.0,14.0,29.97,SW,217,5.0,12.0,39,0.00,,,0.00,,2013-02-15 22:11:00,
2013-02-15 16:21:00,37.0,14.0,29.97,SW,215,5.0,11.0,39,0.00,,,0.00,,2013-02-15 22:21:00,
2013-02-15 16:31:00,37.0,16.0,29.97,SW,223,3.0,10.0,41,0.00,,,0.00,,2013-02-15 22:31:00,
2013-02-15 16:41:00,37.0,16.0,29.97,SW,223,3.0,10.0,41,0.00,,,0.00,,2013-02-15 22:41:00,
2013-02-15 16:51:00,36.0,15.0,29.97,SSW,195,4.0,11.0,42,0.00,,,0.00,,2013-02-15 22:51:00,
2013-02-15 17:02:00,35.0,14.0,29.97,SSW,204,4.0,9.0,42,0.00,,,0.00,,2013-02-15 23:02:00,
2013-02-15 17:11:00,35.0,14.0,29.97,SSW,204,4.0,9.0,42,0.00,,,0.00,,2013-02-15 23:11:00,
2013-02-15 17:21:00,34.0,14.0,29.97,SSW,209,2.0,4.0,43,0.00,,,0.00,,2013-02-15 23:21:00,
2013-02-15 17:31:00,33.0,15.0,29.97,SSW,211,2.0,6.0,47,0.00,,,0.00,,2013-02-15 23:31:00,
2013-02-15 17:42:00,33.0,15.0,29.97,SSW,211,2.0,6.0,47,0.00,,,0.00,,2013-02-15 23:42:00,
2013-02-15 17:52:00,32.0,15.0,29.97,SSW,202,2.0,4.0,50,0.00,,,0.00,,2013-02-15 23:52:00,
2013-02-15 18:02:00,32.0,15.0,29.97,SSW,195,2.0,4.0,50,0.00,,,0.00,,2013-02-16 00:02:00,
2013-02-15 18:11:00,32.0,15.0,29.97,SSW,195,2.0,4.0,50,0.00,,,0.00,,2013-02-16 00:11:00,
2013-02-15 18:21:00,31.0,15.0,29.98,South,184,2.0,3.0,52,0.00,,,0.00,,2013-02-16 00:21:00,
2013-02-15 18:32:00,31.0,18.0,29.98,SSE,165,2.0,4.0,58,0.00,,,0.00,,2013-02-16 00:32:00,
2013-02-15 18:41:00,31.0,18.0,29.98,SSE,165,2.0,4.0,58,0.00,,,0.00,,2013-02-16 00:41:00,
2013-02-15 18:52:00,30.0,17.0,29.98,SSW,192,2.0,4.0,59,0.00,,,0.00,,2013-02-16 00:52:00,
2013-02-15 19:02:00,30.0,17.0,29.98,SSW,192,2.0,4.0,59,0.00,,,0.00,,2013-02-16 01:02:00,
2013-02-15 19:11:00,30.0,17.0,29.98,SSW,192,2.0,4.0,59,0.00,,,0.00,,2013-02-16 01:11:00,
2013-02-15 19:21:00,30.0,17.0,29.98,ENE,71,0.0,2.0,58,0.00,,,0.00,,2013-02-16 01:21:00,
2013-02-15 19:30:00,29.0,18.0,29.98,North,0,0.0,0.0,62,0.00,,,0.00,,2013-02-16 01:30:00,
2013-02-15 19:32:00,29.0,17.0,29.98,NE,45,0.0,2.0,60,0.00,,,0.00,,2013-02-16 01:32:00,
2013-02-15 19:42:00,29.0,17.0,29.98,NE,45,0.0,2.0,60,0.00,,,0.00,,2013-02-16 01:42:00,
2013-02-15 19:52:00,29.0,18.0,29.98,North,0,0.0,0.0,62,0.00,,,0.00,,2013-02-16 01:52:00,
2013-02-15 20:01:00,29.0,18.0,29.98,North,0,0.0,0.0,62,0.00,,,0.00,,2013-02-16 02:01:00,
2013-02-15 20:11:00,29.0,18.0,29.98,North,0,0.0,0.0,62,0.00,,,0.00,,2013-02-16 02:11:00,
2013-02-15 20:21:00,29.0,18.0,29.98,North,0,0.0,0.0,62,0.00,,,0.00,,2013-02-16 02:21:00,